Вернуться в каталог

TITAN 3C TRANSTAGE DEB

LostMEO
NORAD 59983·DEBRIS·🇺🇸 United States

Запущен Sep 26, 1968 с Cape Canaveral Space Force Station

Loading…

Ближайшие Пролёты (ближайшие 24 часа)

TLE

УстаревшееSource: Space-Track

Эпоха: Aug 12, 2026, 15:54 UTC

1 59983U 68081AR  26224.66299216 -.00000116  00000-0  00000-0 0  9993
2 59983   2.8375  59.7506 0205473  21.6802 339.5031  1.02054216  8534

Отслеживайте TITAN 3C TRANSTAGE DEB в реальном времени с AllMySat

Download on the App Store